This is the latest recevied weather packets stored in our database for station/object W4TJP. If no packets are shown the sender has not sent any weather packets the latest 10 day(s).
| Time | Temp. | Humidity | Pressure | Rain* | Wind** | Luminosity | Snow |
|---|---|---|---|---|---|---|---|
| 1778109996 | 11.67° C | 99% | 1013.1 hPa | 0 mm | - | 11 W/m² | - |
| 1778109691 | 12.22° C | 99% | 1012.8 hPa | 0 mm | - | 9 W/m² | - |
| 1778109389 | 12.22° C | 99% | 1012.5 hPa | 0 mm | - | 10 W/m² | - |
| 1778109087 | 12.22° C | 99% | 1012.9 hPa | 0 mm | - | 12 W/m² | - |
| 1778108784 | 12.22° C | 99% | 1013.1 hPa | 0 mm | - | 16 W/m² | - |
| 1778108481 | 12.22° C | 99% | 1012.7 hPa | 1.78 mm | - | 21 W/m² | - |
| 1778108177 | 12.22° C | 99% | 1012.3 hPa | 1.78 mm | - | 21 W/m² | - |
| 1778107874 | 12.22° C | 99% | 1012.6 hPa | 0 mm | - | 12 W/m² | - |
| 1778107571 | 12.22° C | 99% | 1012.7 hPa | 0 mm | - | 10 W/m² | - |
| 1778107267 | 12.22° C | 99% | 1012.9 hPa | 0 mm | - | 9 W/m² | - |
| 1778106963 | 12.22° C | 99% | 1012.7 hPa | 1.27 mm | - | 16 W/m² | - |
| 1778106659 | 12.22° C | 99% | 1012.7 hPa | 1.27 mm | - | 25 W/m² | - |
| 1778106356 | 12.22° C | 99% | 1013.3 hPa | 1.78 mm | - | 15 W/m² | - |
| 1778106053 | 12.22° C | 99% | 1013.6 hPa | 3.05 mm | - | 15 W/m² | - |
| 1778105750 | 12.22° C | 99% | 1013.3 hPa | 1.27 mm | - | 23 W/m² | - |
| 1778105448 | 12.78° C | 99% | 1013.1 hPa | 0 mm | - | 17 W/m² | - |
| 1778105144 | 12.78° C | 99% | 1013.2 hPa | 0 mm | - | 9 W/m² | - |
| 1778104840 | 12.78° C | 99% | 1013.1 hPa | 0 mm | - | 13 W/m² | - |
| 1778104537 | 12.78° C | 99% | 1012.8 hPa | 0 mm | - | 18 W/m² | - |
| 1778104232 | 12.78° C | 99% | 1012.5 hPa | 0 mm | - | 24 W/m² | - |
| 1778103930 | 12.78° C | 99% | 1012.4 hPa | 1.78 mm | - | 28 W/m² | - |
| 1778103627 | 12.78° C | 99% | 1011.5 hPa | 1.78 mm | - | 51 W/m² | - |
| 1778103325 | 12.78° C | 99% | 1011.9 hPa | 0 mm | - | 57 W/m² | - |
| 1778103022 | 13.33° C | 99% | 1012 hPa | 0 mm | - | 32 W/m² | - |
| 1778102718 | 13.33° C | 99% | 1012.5 hPa | 0 mm | - | 43 W/m² | - |
* Rain latest hour (hover to see other rain measurements)
** Current wind speed in m/s (hover to see current wind gust speed)